Theta_e
323 323 324 323 322 323 325 324 323 324 324 327 330 329 330 330 331 333 333 338 336 332 330 330 328 329 329 325 312 313 324 322 327 332 330 326 317 311 318 323 324 321 324 322 319 317 319 312 312
323 323 324 324 322 323 320 320 324 322 323 323 333 334 334 333 334 334 335 336 334 333 331 328 326 325 328 321 310 317 323 328 333 332 329 325 315 312 320 320 326 322 317 312 313 313 311 312 312
323 323 324 320 319 322 320 318 318 321 323 328 330 336 335 335 334 333 332 332 333 334 331 328 325 322 326 317 314 324 330 333 332 333 328 323 316 311 317 323 318 320 310 309 309 310 310 310 311
321 323 322 323 323 322 319 318 318 320 323 325 329 332 336 336 333 333 332 331 332 333 332 327 324 321 322 313 323 329 333 335 331 332 326 320 315 311 312 319 322 323 310 308 308 309 309 309 309
321 323 321 322 323 321 320 321 321 320 320 321 323 331 334 334 334 334 333 332 332 332 333 328 324 320 320 313 327 331 334 335 333 328 324 319 318 310 310 319 319 319 309 307 307 308 308 309 310
320 320 322 323 321 319 318 320 321 320 320 322 327 330 330 331 335 335 334 333 333 333 333 329 323 320 319 313 327 333 333 330 331 327 327 324 321 311 308 309 310 312 312 307 307 307 307 308 309
318 320 322 321 321 321 319 318 319 319 320 322 330 332 332 332 335 336 335 335 335 334 334 330 323 321 319 314 318 329 331 332 332 331 328 327 321 314 310 308 308 307 307 307 307 307 307 308 308
320 317 321 320 321 321 309 312 318 319 320 322 323 334 327 324 328 336 336 336 336 335 335 332 323 320 321 315 313 327 329 331 334 333 329 326 319 318 313 309 307 307 306 307 307 307 307 307 307
320 319 321 321 318 316 307 308 312 314 319 320 323 323 323 324 323 331 337 336 337 336 336 334 325 322 320 314 313 318 323 327 333 333 330 328 324 321 316 309 308 307 306 306 307 307 307 307 307
315 317 313 308 305 307 304 307 307 310 313 317 317 321 321 321 322 327 336 337 337 337 336 334 326 323 322 313 314 316 326 333 332 333 330 330 329 325 320 311 308 307 306 306 306 306 307 307 307
307 309 301 303 302 301 303 304 307 312 311 311 308 311 316 319 321 323 325 336 337 336 335 333 327 324 321 313 312 320 331 336 335 332 331 329 330 326 321 312 309 308 307 306 306 306 306 307 307
305 300 300 300 298 298 301 300 299 307 308 304 301 304 311 316 320 321 326 326 336 336 334 333 328 326 321 313 313 314 326 331 331 330 331 329 330 327 322 312 308 309 308 307 306 306 306 306 307
298 300 300 299 297 297 298 297 298 301 301 301 299 301 304 307 312 321 328 328 332 334 335 333 331 327 323 317 317 316 318 326 328 329 329 330 330 328 324 313 309 309 309 308 307 306 307 307 307
299 300 296 296 296 297 297 296 298 306 298 297 297 297 298 300 304 308 315 327 331 332 335 334 333 331 326 321 321 321 316 319 325 328 330 332 330 326 321 314 309 309 309 309 308 307 307 307 308
298 296 294 295 295 296 297 297 298 298 296 296 296 296 297 298 302 302 309 311 322 332 333 334 333 333 331 326 324 324 323 319 322 324 332 331 328 325 320 313 309 309 310 311 311 311 309 309 310
293 292 293 294 295 296 296 294 297 297 296 295 295 296 296 298 300 301 305 308 314 323 332 328 332 333 333 331 325 324 326 325 323 325 329 330 327 324 321 312 309 309 312 313 314 313 311 310 311
291 293 293 293 294 296 296 296 296 296 295 295 295 296 297 298 298 301 303 306 309 314 328 331 330 331 333 333 329 325 323 326 326 326 327 326 325 325 319 311 311 310 312 315 317 315 314 312 311
293 293 293 293 293 296 296 295 295 295 295 295 296 297 298 299 303 304 302 306 308 312 321 330 331 330 332 333 332 330 326 324 322 326 327 328 327 326 317 312 313 312 312 315 317 315 315 314 313
293 293 293 292 295 296 295 295 295 294 296 296 296 299 298 300 301 303 305 306 309 314 318 327 329 327 327 332 332 332 331 329 325 323 325 327 327 320 315 312 314 315 313 314 314 315 315 315 315
295 294 293 293 294 296 295 294 294 294 295 296 296 298 298 297 297 297 298 305 310 310 314 318 322 325 326 328 330 331 332 330 329 325 322 321 321 319 317 313 314 317 319 316 316 317 316 316 317
296 295 294 294 294 293 293 292 292 294 295 297 298 297 298 297 297 296 296 297 304 310 309 314 318 320 324 325 326 328 330 330 328 327 325 322 320 319 321 321 319 316 319 321 318 316 317 316 317
296 295 295 293 295 294 293 294 293 294 293 295 296 297 298 298 298 297 296 295 296 301 304 310 314 316 317 326 327 327 328 328 330 329 327 325 324 321 323 324 320 319 320 323 323 321 318 318 319
296 294 293 295 294 294 293 293 293 293 294 294 295 296 297 297 296 297 296 295 294 295 299 298 308 314 316 319 320 323 326 328 329 330 329 328 327 325 325 325 323 322 323 324 324 326 325 321 320
294 294 292 291 292 290 293 293 293 293 295 293 295 295 297 297 297 296 296 296 295 295 295 300 301 304 308 313 316 318 320 327 328 329 329 329 329 328 327 326 326 325 324 325 326 325 326 326 323
293 291 292 294 292 294 292 293 294 294 294 293 294 295 296 297 295 295 295 296 296 296 295 296 297 297 301 302 309 312 315 316 327 328 328 329 328 328 328 328 327 326 327 324 325 326 325 326 325
295 291 292 291 294 293 293 294 296 294 295 295 295 295 295 295 295 295 295 295 296 295 295 295 295 296 297 299 302 307 312 314 315 328 328 328 328 329 329 329 328 328 327 327 325 326 325 325 326
293 290 292 290 290 291 292 292 293 294 293 293 294 295 295 295 295 295 295 295 295 296 295 295 295 295 296 297 300 302 308 312 314 318 328 328 329 329 329 329 329 329 328 327 326 326 326 325 326
293 291 290 287 287 290 292 293 294 294 294 293 292 293 294 294 294 295 295 295 295 295 295 296 296 296 296 298 299 302 304 310 312 319 324 326 327 327 329 329 329 329 328 327 325 325 326 326 327
292 291 288 287 291 292 294 293 291 293 293 291 291 293 293 293 294 294 294 294 294 294 295 295 296 297 297 298 300 301 302 306 313 316 316 318 325 327 325 324 325 328 327 327 326 325 324 326 327
291 291 290 289 289 291 294 293 293 292 291 291 292 293 293 293 293 293 293 293 293 293 294 295 295 296 298 299 301 301 302 305 312 316 315 317 319 321 320 322 323 326 327 327 327 327 326 327 327
Wind_Speed
6 5 2 1 3 4 2 4 2 3 5 3 3 4 4 4 4 3 2 9 10 20 22 22 21 20 18 16 15 21 20 17 15 14 12 9 7 8 11 14 14 12 12 13 13 15 12 15 15
5 5 1 2 3 1 4 4 4 2 11 14 6 3 2 4 8 5 5 9 11 20 22 22 21 20 18 17 18 21 21 17 17 14 12 8 6 9 12 13 14 13 13 13 14 13 13 13 12
6 2 1 3 2 3 3 3 4 8 17 4 5 4 4 4 6 4 5 9 12 21 22 22 21 20 19 17 21 23 21 21 18 17 11 8 6 9 14 14 12 13 13 13 13 13 13 12 12
5 1 4 3 3 4 4 3 4 13 10 10 9 9 8 9 5 6 8 10 13 20 21 21 21 20 20 20 26 24 22 23 20 16 12 10 7 9 13 14 14 13 12 13 12 12 12 11 11
2 1 2 2 4 4 4 6 8 5 8 18 13 6 6 14 13 11 10 11 15 19 20 22 22 22 22 24 27 27 26 23 20 16 13 10 7 7 11 15 14 13 13 13 12 12 11 10 10
1 2 2 3 4 4 3 9 6 4 7 12 5 7 7 12 13 11 11 12 15 18 20 22 22 23 23 26 29 28 26 25 21 16 14 11 8 8 10 11 13 13 13 14 13 12 12 11 10
6 3 3 2 3 4 4 16 5 8 12 7 10 3 9 21 22 14 12 14 16 19 21 23 24 24 23 27 31 30 27 25 22 20 16 13 11 9 10 11 11 11 13 13 13 12 12 11 10
5 4 3 2 2 1 11 23 13 20 4 16 14 6 18 30 29 19 18 17 19 21 22 25 26 25 25 27 32 33 29 26 24 20 16 13 12 11 10 11 13 13 13 14 13 13 12 11 11
6 3 2 1 4 6 17 11 14 20 13 21 10 22 13 21 26 19 20 21 24 27 25 26 28 28 26 28 31 35 33 29 26 23 20 16 15 13 12 11 13 14 14 14 13 12 12 12 11
5 3 4 3 4 4 16 9 19 11 19 18 29 23 29 35 27 22 22 26 29 31 30 29 31 31 30 30 33 36 32 30 30 27 23 21 18 16 13 13 14 14 15 15 14 14 13 13 12
6 3 4 6 13 14 10 11 16 10 4 19 33 40 35 35 33 30 26 28 32 33 33 33 33 33 32 33 35 38 36 33 34 28 26 22 21 19 17 16 17 17 17 17 17 15 14 13 13
5 6 7 9 17 17 9 11 21 8 11 23 27 30 29 28 32 34 33 29 34 37 36 35 36 35 35 35 37 40 41 39 38 34 29 28 27 23 20 19 18 18 18 19 18 17 15 14 14
5 5 6 8 17 16 18 21 14 9 20 31 39 38 32 31 28 28 34 31 34 37 39 36 35 38 38 38 39 40 43 43 38 35 34 32 29 25 22 21 21 21 20 21 19 18 17 16 16
1 3 7 14 19 12 17 14 8 8 36 43 43 42 40 39 34 32 26 33 33 36 39 39 38 38 38 40 41 42 41 42 41 39 38 35 31 27 24 23 23 23 22 21 20 19 18 18 18
2 2 5 8 13 7 24 7 3 24 35 39 42 41 42 37 39 39 31 29 31 35 36 41 43 39 39 40 41 41 42 42 43 41 39 37 33 29 27 25 25 24 23 22 21 20 21 20 20
5 5 5 4 14 8 12 9 10 26 38 38 36 45 43 40 33 37 36 32 27 32 37 31 37 42 40 41 43 43 43 43 43 42 40 38 35 31 29 27 27 25 24 23 24 22 22 21 20
7 1 2 9 7 5 8 12 13 34 26 31 35 40 42 43 41 32 34 31 27 27 32 35 32 35 44 43 43 44 44 44 43 43 43 41 37 34 31 30 27 26 26 27 25 24 23 21 19
3 5 5 5 6 7 12 15 23 30 23 25 34 33 33 34 36 33 29 22 22 21 21 28 31 24 35 45 44 43 43 43 45 46 45 43 39 36 34 32 30 28 29 28 27 25 24 22 19
3 3 4 4 3 13 7 18 21 24 21 24 28 24 31 34 34 32 26 24 17 18 20 19 25 24 24 44 46 46 46 46 46 48 47 44 41 38 36 35 32 30 32 30 29 27 25 24 20
1 1 3 9 2 7 7 20 14 11 13 17 23 21 27 31 37 40 39 28 22 25 20 19 18 21 23 29 43 49 51 48 47 47 45 43 42 41 39 38 35 32 29 31 30 29 26 25 21
2 3 5 5 12 5 10 7 6 6 11 21 21 28 27 24 31 35 36 39 26 22 28 22 15 17 17 21 24 39 48 50 44 47 45 44 44 42 40 39 36 34 33 31 31 29 28 27 24
4 3 6 9 7 3 7 5 6 6 10 7 23 29 29 19 26 34 36 34 33 26 17 24 20 16 22 12 26 30 45 43 50 48 46 46 41 41 39 36 34 36 35 34 31 29 29 28 28
6 8 6 2 2 3 4 1 9 4 5 8 19 28 23 19 26 36 41 38 30 31 26 26 23 24 20 24 23 23 33 44 45 45 45 43 43 41 40 38 36 37 36 35 33 30 30 31 31
12 3 1 3 2 3 3 2 6 4 5 6 14 29 22 21 30 36 39 41 40 37 33 23 23 25 25 35 32 28 23 32 40 44 44 43 44 42 41 42 39 35 36 37 35 33 32 32 33
6 5 4 7 6 4 5 5 11 10 11 6 9 22 22 25 31 37 43 40 41 42 36 32 30 23 24 20 30 48 46 34 32 38 43 42 41 43 41 41 43 43 39 37 37 36 36 35 34
4 2 4 4 3 6 6 7 7 6 20 23 13 17 22 31 40 40 38 36 38 40 37 34 32 29 22 23 22 27 45 44 41 34 40 40 44 43 37 37 38 42 43 38 40 40 38 38 37
2 4 2 3 2 2 4 6 11 8 8 12 16 21 27 37 40 40 39 36 34 37 35 32 32 27 22 22 23 24 28 38 37 37 35 38 40 42 41 38 36 36 38 37 38 43 41 41 39
1 5 2 3 2 5 6 7 7 9 10 10 12 24 35 40 41 42 44 42 37 33 33 29 26 25 22 21 21 22 23 30 33 35 24 34 31 37 40 41 39 36 35 35 33 37 43 42 41
1 1 5 3 3 3 4 7 9 14 12 9 17 30 32 37 42 45 46 39 36 31 31 27 24 27 23 17 19 21 19 17 26 31 30 27 33 30 26 29 37 37 34 32 33 33 35 43 42
2 5 5 4 4 4 2 11 5 8 7 11 20 35 38 38 41 41 41 40 38 33 32 32 25 26 23 18 16 18 20 16 18 24 25 21 24 20 22 18 23 39 35 34 35 35 36 40 41
Wind_Direction
338 341 314 316 48 53 283 261 281 307 343 301 273 180 217 186 181 242 238 178 182 187 184 191 194 192 191 192 187 176 174 178 178 177 176 181 178 169 156 149 142 143 137 140 139 133 133 120 118
344 348 360 77 87 52 280 274 239 254 317 310 278 263 265 275 239 264 195 185 182 186 189 192 195 195 191 190 184 173 171 173 176 185 178 192 191 174 156 152 147 146 146 140 141 141 129 129 129
345 31 108 76 90 183 238 255 296 336 344 324 328 320 289 258 274 268 226 198 191 187 193 195 196 194 193 188 174 165 175 175 191 189 196 198 199 186 163 156 154 158 146 143 141 140 137 135 129
339 15 68 103 222 243 223 310 306 326 337 352 339 296 282 271 268 248 228 210 200 190 195 197 197 193 191 185 173 172 178 182 196 211 206 201 202 194 170 164 165 162 154 149 149 147 144 139 139
310 66 74 106 225 240 232 270 292 289 290 304 318 282 266 289 273 270 231 216 205 194 196 200 200 194 192 186 180 180 181 193 197 208 216 204 203 198 180 171 172 170 162 156 156 156 157 159 161
132 89 82 236 244 259 287 299 296 266 307 321 309 294 280 288 297 269 231 219 206 204 200 202 203 200 194 190 187 186 191 200 211 208 212 209 209 201 192 185 173 167 166 165 165 166 170 176 181
135 104 202 241 255 316 10 345 338 339 326 358 332 286 317 342 338 276 241 226 214 204 209 207 207 204 200 195 194 192 198 203 204 212 209 214 215 213 207 201 189 176 171 174 175 178 182 188 191
124 96 160 232 249 262 6 345 358 8 313 336 351 345 324 328 324 303 259 232 220 213 214 215 211 209 202 199 198 198 201 206 209 214 215 219 219 221 221 212 196 188 186 184 185 189 194 199 206
121 83 181 12 15 314 347 349 338 335 324 320 307 312 320 327 333 319 260 238 223 217 217 216 215 213 209 204 200 201 205 210 214 217 216 229 228 228 229 221 208 204 199 196 195 199 204 208 215
61 103 35 59 334 314 319 316 319 337 330 315 321 311 313 319 320 315 277 246 231 225 219 216 216 217 213 208 203 203 206 209 214 211 214 225 232 233 235 231 222 213 208 204 205 207 213 213 219
21 74 332 7 357 340 311 334 338 319 318 340 341 323 318 316 311 301 295 266 245 233 231 222 218 219 218 213 208 207 206 205 208 210 215 227 232 233 234 235 230 220 212 212 212 215 220 222 225
97 24 11 4 4 0 3 353 329 324 327 333 334 330 324 325 318 307 297 287 258 241 238 233 224 222 221 217 213 211 211 211 215 216 217 222 231 234 238 240 236 226 222 219 220 222 225 226 228
70 339 358 353 5 8 358 333 291 272 332 325 324 323 323 318 313 312 305 287 275 259 244 242 235 226 224 220 218 217 216 216 217 216 220 222 229 236 242 245 238 229 225 221 223 223 228 227 228
228 235 339 19 12 37 354 304 306 241 329 325 324 323 317 317 315 308 307 297 278 270 257 251 240 234 229 225 223 221 220 219 218 217 221 225 231 236 243 246 240 232 228 223 223 226 231 230 231
28 35 23 4 2 36 344 317 308 317 325 323 324 323 321 313 309 314 301 299 292 276 266 257 248 236 235 232 229 225 224 223 222 220 222 227 231 238 243 245 240 234 228 224 225 229 231 231 233
31 51 10 5 358 15 13 272 280 325 323 318 321 327 324 320 312 307 304 300 301 281 264 271 253 248 239 236 233 231 229 227 226 227 226 229 232 235 240 243 239 232 230 230 232 234 234 235 239
6 313 320 316 22 3 22 280 302 315 317 312 320 327 329 326 324 310 309 300 299 299 274 262 255 259 247 240 237 235 233 232 231 230 229 230 232 235 238 238 237 234 233 232 235 237 236 237 238
317 350 302 248 324 345 307 282 311 314 321 314 326 341 346 346 344 331 322 317 308 309 284 268 259 257 260 249 239 237 237 236 235 233 232 233 232 235 237 236 234 232 231 233 234 236 237 238 240
183 198 272 260 298 340 306 301 301 312 329 331 331 347 2 6 6 351 336 288 326 341 320 279 261 252 260 245 237 238 239 238 235 233 234 234 235 234 233 235 235 232 230 231 232 235 235 236 238
168 274 296 295 269 344 331 301 295 306 316 318 325 344 1 8 10 15 12 356 266 309 330 306 274 259 248 261 252 245 245 242 242 237 234 235 235 236 235 233 233 234 234 231 231 233 234 234 232
54 69 340 287 324 6 330 297 314 303 333 352 350 336 344 354 359 4 7 10 355 290 316 331 318 282 255 253 267 261 248 244 243 243 239 235 234 234 236 236 234 232 232 234 235 234 233 234 231
4 159 305 304 9 314 18 293 303 290 314 318 333 339 337 334 346 350 354 355 357 352 327 299 309 301 288 246 262 257 239 234 247 247 245 241 235 232 232 235 231 231 229 233 235 237 237 237 234
261 305 289 256 115 36 355 302 271 294 308 317 326 328 326 328 339 341 343 342 341 346 349 345 303 294 296 286 263 282 245 244 249 249 245 247 243 237 232 233 233 231 232 234 237 239 240 239 240
275 330 95 86 125 36 186 107 276 271 246 292 321 325 317 316 326 329 331 328 329 332 332 338 326 310 287 275 280 278 310 248 243 238 241 248 247 243 238 234 235 237 238 236 238 241 244 245 243
354 9 352 2 8 249 173 328 252 276 278 233 296 319 318 317 323 329 329 324 319 322 320 317 316 320 303 302 274 276 274 285 249 245 244 241 248 248 242 237 236 238 243 242 241 241 245 243 245
356 51 127 217 284 287 310 224 254 236 292 298 299 319 322 325 328 328 329 324 319 318 317 312 309 311 310 298 298 270 277 280 279 241 246 251 251 253 254 249 242 242 245 247 245 242 242 244 244
326 48 194 119 99 321 259 278 284 287 285 290 311 322 326 328 329 329 330 325 320 320 320 319 309 303 304 302 294 292 273 276 271 275 250 240 248 253 257 252 245 244 245 244 248 245 239 242 244
24 167 63 26 11 299 281 286 246 284 283 302 307 313 321 324 324 326 324 325 321 315 320 319 315 302 293 295 292 299 287 262 269 253 249 242 239 250 252 248 245 240 241 244 246 243 238 239 242
142 342 45 115 150 211 294 253 209 247 264 283 303 311 310 310 315 319 322 320 321 312 316 315 320 320 291 284 289 294 295 280 257 261 263 260 254 235 234 255 248 242 236 238 241 243 240 237 240
290 203 165 130 247 234 260 267 227 229 260 292 291 305 309 308 311 313 313 320 322 318 311 313 311 325 305 281 284 297 293 289 256 253 261 260 257 253 262 248 262 254 246 235 238 239 233 232 232